Flag for Germany Weather past 2 weeks in Wittenberg, Saxony-Anhalt, Germany

Now
63 °F

Broken clouds.


Feels Like: 63 °F
Forecast: 44 / 68 °F
Wind: 10 mph from Southwest

Location: Holzdorf

Current Time: Apr 26, 2015 at 1:33:32 PM

Latest Report: Apr 26, 2015 at 12:20 PM


Visibility: N/A

Pressure: 29.77 "Hg

Humidity: 59%

Dew point: 48 °F

Location of WittenbergLocation

Historic Weather in Wittenberg — Graph

°F

Wittenberg temperature yesterday

Maximum temperature yesterday: 72 °F (at 1:20 PM)
Minimum temperature yesterday: 39 °F (at 4:20 AM)
Average temperature yesterday: 58 °F

Past Weeks' High & Low Weather Summary

 TemperatureHumidityPressure
High73 °F (Apr 15, 3:20 PM)100% (Apr 18, 6:20 AM)30.45 "Hg (Apr 18, 6:20 AM)
Low27 °F (Apr 19, 3:20 AM)17% (Apr 21, 2:20 PM)29.74 "Hg (Apr 25, 3:20 PM)
Average51 °F60%30.11 "Hg
* Reported Apr 11 12:20 PM — Apr 26 12:20 PM, Wittenberg, Weather by CustomWeather, © 2015

Note: Actual official high and low records may vary slightly from our data, if they occured in-between our weather recording intervals... More about our weather records

Advertising

Wittenberg weather history for previous 24 hours

 ConditionsComfort  
Time TempWeatherWind HumidityBarometerVisibility
12:20 PM
Sun, Apr 26
63 °FBroken clouds.10 mph59%29.77 "HgN/A
11:20 AM63 °FScattered clouds.9 mph56%29.77 "HgN/A
10:20 AM63 °FScattered clouds.6 mph59%29.77 "HgN/A
9:20 AM61 °FScattered clouds.3 mph68%29.77 "HgN/A
8:20 AM57 °FPartly sunny.6 mph77%29.77 "HgN/A
7:20 AM52 °FBroken clouds.No wind94%29.80 "HgN/A
6:20 AM52 °FPartly cloudy.1 mph88%29.77 "HgN/A
5:20 AM52 °FPartly cloudy.3 mph94%29.77 "HgN/A
4:20 AM54 °FPassing clouds.3 mph88%29.77 "HgN/A
3:20 AM55 °FPartly cloudy.7 mph82%29.77 "HgN/A
2:20 AM57 °FPartly cloudy.5 mph77%29.77 "HgN/A
1:20 AM59 °FPartly cloudy.8 mph72%29.77 "HgN/A
12:20 AM59 °FPartly cloudy.12 mph72%29.77 "HgN/A
11:20 PM
Sat, Apr 25
59 °FPassing clouds.6 mph68%29.77 "HgN/A
10:20 PM61 °FPassing clouds.6 mph55%29.77 "HgN/A
9:20 PM63 °FPassing clouds.6 mph49%29.74 "HgN/A
8:20 PM64 °FPartly sunny.10 mph46%29.74 "HgN/A
7:20 PM66 °FPartly sunny.13 mph40%29.74 "HgN/A
6:20 PM66 °FOvercast.10 mph37%29.74 "HgN/A
5:20 PM68 °FMore clouds than sun.12 mph33%29.74 "HgN/A
4:20 PM70 °FMostly cloudy.9 mph31%29.74 "HgN/A
3:20 PM70 °FMostly cloudy.12 mph29%29.74 "HgN/A
2:20 PM72 °FPartly sunny.15 mph25%29.77 "HgN/A
1:20 PM72 °FBroken clouds.15 mph27%29.77 "HgN/A
Weather by CustomWeather, © 2015

See weather overviewHow to use our weather pages